GFSSGP_sfc_thetae_000.txt.gz
Theta_e
328 324 323 318 305 303 296 297 299 301 301 303 305 302 300 302 301 296 317 323 325 327 339 343 347 350 353 353 354 354 353 352 350 350 349 348 347 346 346 345 344 343 343 343 342 343 347 354 353
321 322 319 314 299 295 294 297 299 300 302 303 303 302 301 299 307 307 314 322 323 328 332 342 344 351 353 353 353 353 352 352 351 350 348 348 347 346 345 344 345 343 343 342 342 342 348 353 352
322 320 311 305 298 293 294 299 300 302 304 302 301 302 300 301 306 307 312 318 322 324 332 342 345 348 350 351 352 352 352 352 351 351 348 347 347 347 346 345 346 346 345 343 341 342 348 352 351
315 314 309 298 295 297 297 299 301 301 302 304 302 298 303 308 307 310 313 313 319 323 329 340 342 343 345 349 350 351 350 350 350 350 350 348 348 348 347 346 346 347 347 348 344 344 346 351 350
314 309 301 297 296 297 299 302 301 300 299 301 300 299 301 307 308 311 312 316 315 319 328 334 338 338 340 344 348 349 350 348 347 347 348 348 347 347 346 346 346 347 347 346 348 348 346 350 349
306 305 297 294 295 299 301 302 300 300 302 301 298 298 300 307 307 309 311 313 317 318 326 331 333 335 336 338 342 347 348 348 347 345 346 346 346 346 346 346 346 346 345 346 348 348 347 349 347
304 302 296 294 296 298 300 302 299 299 299 298 301 297 301 302 306 308 307 308 309 310 311 317 327 331 330 333 335 339 343 345 346 346 343 343 343 343 343 342 344 345 344 346 347 346 347 348 346
305 302 297 295 295 296 299 299 302 300 298 303 303 296 295 300 305 305 305 305 305 308 309 310 310 313 326 330 332 332 336 339 341 341 339 336 336 336 337 336 340 344 344 345 345 345 346 346 344
309 299 296 295 296 297 301 299 302 302 300 301 303 298 299 301 303 301 300 301 302 305 306 308 310 311 311 317 326 328 331 334 334 335 332 331 332 333 332 332 335 339 341 342 343 344 344 340 337
302 299 297 299 299 298 300 299 297 298 298 297 299 299 300 299 298 297 296 297 298 299 302 303 306 311 312 314 318 326 329 332 334 334 334 333 332 331 331 328 330 335 333 336 341 342 337 333 333
302 298 300 301 302 301 299 298 298 297 294 296 294 294 297 296 296 295 295 295 296 298 299 300 301 304 310 313 315 320 324 329 331 331 332 334 333 330 327 328 326 327 322 329 332 331 332 332 331
297 302 302 303 302 300 297 298 297 297 296 297 296 296 295 294 294 294 294 295 295 296 297 298 300 301 303 307 312 314 318 323 328 329 330 330 330 329 327 327 328 326 327 322 324 323 323 326 328
299 299 301 301 300 298 300 297 297 295 297 296 296 296 293 293 293 293 294 295 295 295 296 297 298 299 302 303 306 308 314 317 322 326 328 329 329 328 328 326 327 327 327 325 322 321 321 320 321
300 300 300 300 299 299 297 295 297 295 295 294 295 293 292 292 292 292 292 293 293 294 295 296 297 298 301 302 303 306 309 315 320 323 326 327 328 327 327 325 326 325 327 327 323 321 319 318 319
299 295 297 297 298 297 297 294 294 295 296 293 292 291 292 292 293 291 291 291 291 293 295 296 296 297 297 299 301 305 308 311 315 319 322 324 326 326 326 325 326 326 326 326 324 322 321 319 319
295 294 291 297 298 297 295 288 292 295 294 290 289 287 289 291 292 292 292 290 290 292 293 295 297 295 296 296 297 302 305 307 308 314 317 321 323 325 325 326 326 326 325 324 323 322 320 320 319
294 288 290 293 297 295 294 289 293 294 291 288 287 287 288 289 289 288 289 289 289 290 291 292 294 293 293 294 296 299 303 302 304 305 308 311 316 321 323 324 326 325 324 323 322 320 320 318 319
286 286 289 289 293 293 291 291 292 291 289 286 285 285 285 286 286 288 289 290 290 289 289 290 292 293 293 294 294 295 299 301 301 301 302 303 310 310 316 321 323 324 322 320 321 318 320 319 318
291 289 288 292 294 289 290 289 291 289 287 285 284 284 284 285 286 288 289 288 288 288 288 290 291 291 292 292 291 292 292 295 298 300 301 302 306 305 307 306 320 322 321 320 319 318 316 317 318
291 289 288 290 294 290 289 289 288 288 287 286 285 283 283 284 285 286 287 286 287 287 288 290 291 291 292 292 292 292 292 294 295 299 300 300 300 302 304 304 304 319 320 319 318 317 315 316 318
289 287 286 286 289 290 288 285 284 285 285 286 286 285 285 283 284 285 286 284 286 287 288 290 291 291 291 292 292 291 292 293 292 293 296 299 299 300 301 305 305 304 320 318 317 316 315 313 316
286 288 288 287 283 278 285 276 282 282 282 284 285 282 282 282 284 284 284 285 286 287 289 290 290 290 291 292 290 289 288 288 290 292 295 296 299 299 301 303 304 304 307 317 318 317 316 315 312
288 288 286 285 283 281 282 278 281 283 280 282 282 282 281 282 283 283 284 286 287 288 288 289 289 289 290 288 287 287 287 288 288 291 292 293 297 299 300 298 302 303 301 312 317 317 316 316 314
290 287 286 285 282 274 280 279 280 280 283 281 282 281 282 282 282 284 286 286 286 287 287 287 287 286 287 285 282 281 282 283 285 288 289 291 294 297 297 297 298 302 304 308 316 316 316 316 315
288 282 275 275 274 274 280 276 280 281 282 281 280 280 280 281 282 283 284 284 285 285 286 285 284 283 282 280 279 279 279 280 281 283 287 291 293 294 295 296 297 298 299 302 313 315 315 315 314
283 281 275 269 271 273 277 273 279 282 283 283 282 281 281 281 282 283 284 284 284 285 284 283 282 280 280 279 278 278 278 278 279 282 283 284 291 295 296 296 297 296 297 302 303 313 315 314 314
283 278 282 275 268 267 273 279 281 282 281 281 280 280 279 280 282 282 283 283 284 284 282 281 280 279 278 277 277 276 277 277 278 279 281 282 285 293 296 295 294 295 295 297 301 299 312 313 313
280 283 275 275 264 264 273 275 276 277 278 279 278 278 278 280 282 282 282 283 283 283 282 281 279 277 277 276 275 275 275 276 276 278 278 280 284 286 294 294 294 293 293 294 300 299 308 311 312
277 276 277 277 276 268 265 271 279 278 279 277 278 279 279 280 280 281 282 282 282 281 280 279 278 276 275 275 274 273 273 274 275 276 277 279 282 283 287 294 293 291 291 292 293 300 307 309 310
279 278 278 270 271 272 271 272 283 281 279 279 279 279 279 281 280 281 281 281 280 279 278 277 276 275 275 274 273 273 272 273 273 274 276 278 278 283 283 284 292 290 291 291 292 295 297 307 308

GFSSGP_sfc_thetae_003.txt.gz
Theta_e
325 318 316 311 300 294 289 293 294 296 296 297 301 300 298 300 298 294 316 320 321 325 341 344 347 350 353 354 354 352 353 351 351 351 351 350 350 349 348 348 348 346 345 344 344 344 346 351 354
315 319 313 305 294 288 288 291 294 296 299 299 300 299 299 296 303 309 309 316 322 323 339 344 345 350 352 353 353 352 352 351 351 350 349 350 350 351 349 347 348 346 345 344 343 344 346 349 353
318 317 304 299 290 287 289 292 294 297 300 299 297 301 298 298 304 304 309 314 320 325 341 344 345 348 349 351 352 352 352 352 350 350 350 349 349 349 348 349 349 347 346 345 344 343 346 348 352
309 308 303 293 290 292 293 293 296 297 299 302 299 296 301 304 305 308 311 312 315 323 335 342 344 343 343 345 349 349 348 349 349 349 348 348 349 349 349 348 348 348 347 347 347 346 345 347 350
307 301 294 291 289 293 294 297 297 297 297 298 298 295 298 303 305 306 307 309 309 311 313 322 337 341 341 342 344 345 347 348 348 348 347 347 347 347 348 348 348 348 347 346 347 348 347 347 348
300 298 291 288 290 294 294 297 296 295 297 297 296 296 295 302 304 304 305 306 308 309 311 313 318 324 334 339 340 340 341 344 345 346 345 346 345 346 347 345 346 347 346 345 345 348 347 347 348
300 294 291 290 291 294 296 297 296 295 294 296 297 294 295 299 302 303 302 302 304 306 307 309 311 315 319 324 333 337 339 340 342 343 343 342 342 343 343 343 344 345 345 345 346 347 347 347 348
299 296 292 293 291 292 295 297 298 297 296 300 299 292 290 296 300 300 300 300 301 302 302 302 304 308 313 313 322 325 332 335 336 338 337 335 335 337 337 335 338 343 344 344 344 345 345 346 346
302 295 292 290 292 293 297 295 298 298 296 295 297 294 295 297 298 296 296 297 299 300 299 300 300 302 307 308 315 319 324 329 330 332 332 331 334 335 333 332 334 340 339 340 342 343 343 341 339
298 293 293 295 294 293 296 295 295 295 293 292 293 295 296 296 294 293 293 293 295 296 297 298 298 300 302 305 307 311 314 320 324 328 330 332 331 333 333 328 329 333 334 337 340 339 338 332 333
296 293 296 297 298 298 296 295 296 294 290 290 290 291 293 293 292 291 292 292 292 293 295 296 297 298 299 302 303 305 307 312 319 323 325 329 330 330 330 331 328 327 324 328 330 331 330 330 333
292 298 298 300 299 298 295 296 293 293 291 294 293 292 291 290 290 290 291 292 292 292 294 295 295 296 297 300 301 302 303 307 314 317 323 325 326 327 328 327 326 325 326 324 325 324 328 330 331
295 297 298 299 298 296 298 295 292 289 292 293 293 292 290 290 290 290 291 291 290 290 292 294 294 294 297 296 297 298 300 305 309 313 317 321 323 325 327 327 326 325 325 323 324 324 325 327 327
297 297 297 298 298 297 295 294 293 291 291 291 291 290 290 290 290 288 289 289 289 290 290 293 294 294 295 295 294 295 296 301 307 308 310 317 316 318 322 325 326 326 326 324 324 323 323 324 326
296 292 294 295 296 295 296 291 290 292 291 290 289 288 289 290 289 287 287 288 287 289 290 290 292 294 294 294 294 294 295 298 301 305 307 307 309 309 309 313 321 325 327 325 323 322 319 321 322
292 290 287 294 295 295 292 286 289 291 288 286 285 284 287 287 287 285 286 287 287 288 288 289 292 292 293 293 294 294 294 295 297 303 304 305 304 304 304 312 310 317 326 326 323 322 319 319 320
290 285 285 290 295 293 291 287 290 292 287 285 283 284 285 284 284 284 286 287 287 287 287 288 290 291 291 292 293 293 293 293 295 298 299 302 302 303 307 305 307 307 310 325 324 322 321 318 318
283 283 286 286 291 292 290 289 289 289 286 283 283 282 282 283 283 286 287 287 286 286 286 287 289 290 291 292 293 293 292 292 293 293 296 300 300 302 300 302 303 304 306 306 323 321 321 319 318
288 287 285 289 293 289 289 289 287 287 284 281 281 281 282 283 283 286 286 285 285 285 285 286 288 290 291 290 290 290 290 291 292 292 294 295 298 299 299 299 300 301 303 304 302 320 318 318 319
289 287 285 289 291 288 287 286 290 286 284 283 282 282 282 282 282 284 284 284 283 283 284 286 288 289 290 290 290 291 290 290 291 292 293 295 296 296 298 297 298 300 301 302 302 301 317 318 319
287 285 284 286 287 287 285 282 285 284 284 284 284 283 282 282 282 282 284 282 282 283 283 287 288 289 289 289 289 288 288 287 287 288 290 292 292 295 297 297 298 299 300 301 301 300 301 314 317
284 287 286 285 281 277 282 276 279 281 282 283 283 280 280 281 282 282 282 281 282 283 284 286 287 288 288 287 286 283 281 280 281 282 284 286 290 293 296 298 297 297 296 294 301 302 300 304 313
286 286 285 284 281 278 279 275 278 281 279 281 280 280 280 281 282 281 282 284 284 284 283 285 285 286 286 285 284 282 280 280 280 280 280 282 285 291 293 294 296 295 295 295 299 300 300 298 315
289 286 284 282 279 272 278 278 276 277 281 281 279 279 281 281 280 281 283 284 283 282 283 284 284 284 285 283 282 280 278 277 277 277 277 280 283 286 288 293 296 295 295 296 296 298 301 299 312
286 280 275 272 272 273 277 275 280 282 282 282 278 279 280 280 279 280 281 281 282 282 283 283 283 282 282 281 280 279 277 277 276 276 276 278 280 282 283 287 291 295 296 296 295 296 298 299 296
284 280 275 270 269 276 277 274 279 280 281 280 280 280 280 279 280 280 281 281 281 282 282 282 281 281 280 279 278 278 277 276 275 276 276 275 276 278 282 284 287 295 295 294 294 295 298 298 297
281 278 282 276 263 266 273 276 279 279 279 278 278 279 278 279 279 280 281 281 280 280 281 280 280 279 279 278 277 276 276 274 273 274 273 274 277 278 279 283 287 288 294 294 293 293 295 298 298
281 283 277 277 270 264 271 274 277 276 277 277 277 277 278 278 279 280 280 280 280 280 280 280 279 278 277 277 276 276 274 274 273 272 273 274 274 276 278 280 282 286 293 293 292 292 293 296 298
276 276 278 278 277 271 267 273 278 279 279 276 276 278 278 278 279 279 279 279 279 279 278 278 277 276 275 275 275 274 274 273 272 272 272 272 275 275 275 276 281 283 284 292 291 291 291 293 296
279 279 279 276 274 274 275 275 281 280 278 277 277 278 279 280 279 278 278 278 278 277 277 277 276 274 274 274 273 273 273 272 271 270 270 271 271 272 274 275 277 279 283 290 290 289 290 290 294

GFSSGP_sfc_thetae_006.txt.gz
Theta_e
320 315 315 309 299 292 287 291 292 294 294 296 299 300 297 296 297 295 313 314 319 331 341 343 347 349 350 350 350 348 348 349 349 350 350 350 349 349 349 349 349 347 346 345 344 344 345 347 349
315 316 311 302 293 286 287 290 292 294 298 299 300 297 296 294 302 305 306 312 323 336 342 343 345 348 346 349 350 350 349 349 349 349 349 348 349 349 348 349 348 348 346 346 345 343 344 347 348
316 314 304 296 288 287 287 291 291 296 298 298 296 298 297 296 301 303 306 309 311 312 321 325 337 343 342 344 346 347 347 348 348 349 350 347 348 348 348 348 349 349 346 346 346 344 345 346 347
307 306 299 291 287 289 292 292 295 296 297 300 298 294 298 302 302 303 306 308 308 310 312 320 328 330 334 339 342 343 342 343 345 346 346 348 348 348 346 347 348 347 346 345 346 346 348 345 346
304 298 292 289 287 290 291 294 295 294 295 296 297 294 295 300 302 302 303 305 303 304 308 310 323 324 327 328 330 334 335 339 340 342 343 344 346 345 346 346 347 347 346 345 345 348 349 348 347
299 296 290 286 289 291 292 294 295 294 295 294 295 293 294 298 299 299 301 300 302 301 303 304 311 318 321 323 323 326 329 333 336 338 339 341 342 343 344 345 344 345 345 345 346 348 347 347 347
296 293 290 288 290 291 294 295 294 292 292 295 296 291 293 295 298 298 298 298 298 299 300 300 301 307 313 317 318 319 319 322 328 331 334 335 338 340 340 341 342 343 344 345 346 345 346 347 346
298 294 290 290 290 290 294 295 295 295 293 297 295 290 288 293 296 296 296 296 296 297 296 297 299 300 302 303 313 315 314 316 320 325 329 329 330 333 335 334 336 341 342 342 343 341 343 345 345
301 293 290 289 290 291 294 294 295 295 292 293 294 292 294 294 294 293 293 293 294 297 295 296 297 298 300 301 304 308 309 311 315 319 321 322 326 328 330 331 333 338 339 339 340 341 341 338 337
296 292 292 293 293 292 294 293 294 292 290 290 290 293 293 292 291 291 290 290 290 292 294 294 294 296 298 300 300 300 302 302 307 313 313 318 321 324 326 325 327 331 332 335 337 338 337 333 333
294 291 295 296 296 296 295 293 293 291 289 290 289 289 290 290 289 290 289 289 289 290 292 294 293 294 295 296 297 296 299 299 305 307 308 311 311 318 321 325 328 328 324 327 330 332 333 330 330
292 296 297 299 298 296 294 294 291 290 290 292 290 290 289 288 288 289 288 288 288 289 291 292 293 293 293 293 293 293 294 297 300 304 307 306 309 306 307 311 315 324 326 325 327 328 328 327 329
293 295 297 297 297 296 296 292 291 288 290 291 290 290 288 288 288 288 288 288 287 287 289 290 291 291 292 292 291 292 291 293 296 299 302 305 305 303 306 305 305 309 316 325 325 326 325 326 330
295 296 296 297 296 296 293 290 291 290 290 289 289 288 288 289 288 287 287 286 287 288 288 288 289 290 291 291 290 291 292 293 294 294 297 302 302 300 303 302 301 310 313 312 320 326 325 326 328
295 292 294 294 295 294 293 289 290 291 289 288 287 287 288 288 287 286 286 286 285 286 287 287 289 290 289 290 291 292 292 293 293 293 295 298 298 298 301 300 301 307 308 305 305 316 325 325 326
291 289 287 292 294 293 291 286 290 290 289 286 285 284 286 286 286 285 286 286 284 285 286 287 290 289 290 289 291 291 292 292 292 293 294 294 294 296 299 298 300 302 303 303 302 303 317 322 323
287 284 285 288 294 292 290 286 289 289 287 285 283 283 283 283 283 284 285 284 284 284 285 286 287 288 289 290 290 290 290 291 292 292 292 292 293 294 298 297 299 299 300 300 301 302 302 318 321
284 282 284 285 289 290 289 288 288 289 285 284 282 282 281 282 284 285 285 284 284 284 284 285 287 287 288 289 289 289 289 289 290 289 290 290 291 292 294 296 298 298 299 298 300 300 302 301 313
286 285 284 287 291 288 288 290 287 289 284 282 281 280 280 282 284 284 284 283 283 283 284 284 286 286 287 287 286 286 285 286 286 287 287 287 289 290 290 292 294 296 297 297 298 300 300 300 302
287 285 285 288 289 287 287 286 289 288 286 285 283 280 280 281 282 283 283 282 282 282 283 284 285 286 286 286 286 285 284 284 284 284 284 284 284 285 285 287 290 294 296 297 297 298 298 299 300
285 285 284 284 286 285 284 282 287 285 286 283 282 282 281 281 282 282 283 280 281 281 282 284 285 285 285 285 285 284 283 283 282 281 281 282 282 282 283 283 285 290 294 295 294 296 296 296 298
283 286 286 284 281 278 281 277 280 281 282 282 282 280 280 280 282 282 282 280 280 282 282 283 285 285 285 284 282 280 279 278 280 280 280 280 281 280 282 284 287 288 292 294 293 294 294 296 296
285 285 284 283 280 277 279 276 279 279 279 280 281 280 279 280 281 281 282 282 282 282 281 282 283 283 284 283 281 279 278 278 279 279 278 278 278 280 280 283 283 286 287 293 293 292 294 296 296
288 285 283 280 278 272 278 277 275 276 280 281 282 279 280 280 280 281 282 282 282 282 281 281 282 281 282 281 279 278 277 277 276 276 275 276 276 278 279 279 280 282 286 287 293 294 294 294 294
286 281 276 273 271 274 277 275 282 282 282 282 282 279 279 279 279 280 280 280 281 280 281 281 281 280 280 279 279 278 277 276 275 275 275 274 274 275 275 276 278 280 282 285 287 294 292 293 293
284 282 277 270 271 279 275 275 280 280 280 283 283 280 278 278 279 280 280 280 280 280 280 279 279 279 279 278 278 277 277 276 276 275 274 273 274 273 274 276 277 277 280 286 286 293 293 293 293
281 278 281 274 262 266 274 277 281 278 277 277 278 278 277 278 278 279 280 280 279 279 279 279 278 279 278 277 277 276 276 275 274 274 274 274 274 274 275 274 274 276 280 280 285 285 292 292 293
282 283 276 275 269 266 273 275 279 275 275 276 276 276 277 278 278 279 279 279 279 279 278 278 278 277 277 276 275 274 274 274 274 274 273 273 273 273 273 273 273 273 275 277 281 283 292 291 291
277 277 278 277 279 272 271 280 280 279 279 276 277 278 277 277 278 278 279 279 279 278 277 276 275 275 275 274 273 273 273 273 273 273 272 272 273 272 271 271 272 273 275 276 278 282 285 290 290
280 281 281 275 274 275 275 278 282 281 281 279 278 278 277 278 278 278 278 277 277 276 275 274 274 274 274 273 272 271 272 272 272 271 272 272 271 272 271 271 271 271 272 274 276 279 280 289 288

GFSSGP_sfc_thetae_009.txt.gz
Theta_e
316 314 313 307 296 291 286 289 293 293 293 296 298 298 295 295 297 293 306 309 314 329 329 333 343 344 343 346 347 348 346 347 347 348 348 349 348 349 349 350 350 348 348 347 347 345 344 347 348
315 314 310 299 290 286 286 291 290 292 296 297 297 295 295 293 299 302 302 307 310 313 319 325 334 338 339 341 341 342 344 345 346 346 348 348 348 348 348 348 349 350 347 347 347 346 344 346 347
314 310 303 293 286 286 287 289 291 294 297 296 295 297 294 294 298 300 303 306 306 306 310 320 331 331 331 332 334 335 337 341 342 344 345 346 347 347 346 347 348 348 346 347 347 346 347 346 346
306 305 298 289 287 288 289 291 293 295 295 298 295 292 296 299 299 301 303 303 300 302 304 314 322 323 323 325 328 330 332 335 336 337 339 341 343 343 343 345 345 346 345 345 346 345 348 347 347
302 296 291 287 287 291 290 292 294 293 293 293 295 291 293 298 300 299 298 300 298 298 301 304 315 317 317 318 319 320 321 325 329 332 334 334 335 339 341 342 343 344 344 344 345 346 347 348 348
298 294 288 286 287 290 291 293 293 291 293 294 293 291 291 296 296 296 297 295 297 297 299 301 307 312 312 313 314 315 315 318 321 324 325 327 332 334 335 337 340 341 341 342 344 346 345 347 346
296 292 288 287 288 290 293 294 291 291 292 292 295 289 292 293 295 295 294 294 295 295 297 297 298 303 307 308 309 311 311 313 316 318 317 321 325 328 330 332 334 338 340 342 342 342 343 344 345
296 293 290 288 288 289 293 293 293 293 291 294 293 288 287 292 294 294 293 293 293 295 294 295 295 297 298 298 306 307 307 308 311 311 313 314 314 317 323 326 329 333 335 338 340 340 340 341 341
299 292 289 287 290 291 293 292 292 292 291 290 291 291 292 294 293 291 290 290 290 294 294 293 294 295 297 297 299 302 304 305 307 307 308 308 307 312 311 314 317 322 326 332 335 337 339 337 335
295 290 291 292 292 292 293 292 292 291 288 287 288 290 291 291 290 289 287 287 288 289 291 292 292 293 294 297 295 295 297 297 300 303 302 302 305 308 306 308 312 311 313 317 329 332 334 331 332
293 289 294 295 295 296 294 292 292 290 288 288 287 288 289 289 288 288 287 287 287 287 289 290 291 292 292 293 293 292 293 293 297 299 301 300 303 303 300 304 304 304 305 309 315 322 326 327 329
291 294 295 298 297 295 293 293 290 290 291 292 290 289 288 287 287 287 287 286 286 287 288 289 289 290 290 290 290 290 290 292 292 296 298 299 298 298 297 299 302 301 300 310 311 310 311 323 327
292 293 296 297 296 294 294 292 291 289 288 290 289 288 287 287 287 287 288 287 286 286 286 287 287 288 289 289 289 289 289 290 291 292 294 297 295 295 295 295 299 299 301 307 306 304 304 305 315
293 294 295 295 296 294 293 289 290 289 288 287 288 287 286 287 287 285 285 285 284 286 286 287 287 288 289 288 288 288 289 290 290 291 292 295 294 293 292 293 296 298 300 303 302 301 302 302 305
293 291 293 292 294 293 293 289 289 289 287 287 286 286 287 287 287 285 286 285 284 285 286 286 288 289 288 288 288 288 289 290 289 290 292 292 292 291 291 291 294 297 298 300 299 299 301 301 302
290 288 286 291 292 292 291 286 292 289 287 286 285 284 286 285 285 285 285 284 283 284 285 286 289 287 288 287 287 288 288 288 288 288 288 289 289 289 288 289 291 294 296 298 297 297 298 299 300
287 284 284 288 292 290 289 287 290 288 287 286 284 284 285 284 282 283 284 283 283 283 284 285 286 286 287 287 287 287 287 286 286 286 287 286 287 286 287 287 289 290 293 296 295 296 297 296 298
285 283 284 283 287 289 287 288 290 287 287 287 284 282 282 281 282 283 284 283 283 283 284 284 286 286 286 286 286 285 285 285 284 284 285 285 285 285 284 285 284 285 288 291 294 296 297 297 298
285 283 283 285 289 287 287 289 292 288 285 284 281 282 282 281 283 283 283 282 282 282 283 283 284 285 285 284 283 283 281 282 282 283 284 283 283 284 283 282 282 283 283 284 290 295 295 295 296
285 283 283 287 288 287 286 285 290 287 287 287 286 283 282 281 281 282 282 282 282 282 282 283 284 284 284 284 283 282 281 281 281 282 282 282 282 282 281 281 280 281 281 283 285 289 292 294 295
284 283 283 284 285 285 282 280 285 286 287 287 287 285 283 282 281 282 281 281 280 281 281 283 283 284 284 283 283 282 281 280 278 279 280 281 281 281 280 280 280 281 281 285 286 288 292 292 293
282 286 285 284 281 278 281 277 280 283 284 284 285 281 282 280 281 281 281 280 280 281 281 282 283 283 284 283 281 278 277 276 277 278 279 279 280 279 279 279 279 280 281 279 282 286 288 292 290
285 285 283 281 280 277 278 276 278 279 281 285 282 282 282 281 281 280 281 282 282 282 280 281 281 282 283 282 280 278 277 278 278 277 276 277 278 279 278 278 279 277 277 278 279 282 286 290 291
287 284 282 278 277 272 277 278 276 279 282 282 281 282 281 280 280 280 281 282 281 281 280 280 280 280 282 280 279 277 276 276 275 275 275 276 277 277 277 278 276 276 276 277 279 280 283 285 288
284 282 277 274 272 275 276 274 282 286 285 283 283 281 280 280 279 279 280 280 280 280 280 280 280 279 279 278 277 276 276 275 275 274 274 275 275 275 275 276 275 274 276 277 277 277 280 286 285
283 283 278 271 271 277 274 275 281 282 280 280 281 282 280 279 279 279 280 280 280 280 279 279 278 278 278 277 276 276 275 274 274 274 274 274 274 275 275 275 275 275 275 274 275 277 279 283 284
282 279 282 277 262 267 276 278 282 278 278 277 279 279 278 279 278 279 279 280 279 278 279 278 277 277 277 276 275 274 273 273 273 273 274 274 275 275 275 274 274 274 273 274 273 273 276 279 284
281 283 277 275 267 265 273 276 281 280 279 276 276 277 278 278 278 278 279 279 279 278 278 277 276 276 275 275 273 274 273 272 272 273 273 273 274 274 274 273 273 273 273 273 273 274 276 278 281
278 277 278 278 277 271 267 279 282 284 282 276 277 278 278 278 278 278 278 278 278 278 276 275 275 275 274 274 273 272 272 272 272 272 272 272 273 273 272 272 272 272 272 272 272 272 272 274 277
281 282 281 276 273 272 274 280 280 282 282 278 278 279 278 278 278 277 278 277 277 276 275 274 274 273 273 272 271 271 271 270 270 270 271 272 271 272 272 271 271 271 271 271 271 271 272 273 277